Aspen, CO

11:53 PM MDT on April 23, 2018 (GMT -0600)
Aspen-Pitkin County / Sardy Field

Weather History for KASE - September, 2013

Change the Weather History Date:

Wednesday, September 25, 2013

  Actual Average Record
Temperature  
Mean Temperature 54 °F 50 °F  
Max Temperature 70 °F 65 °F 79 °F (2001)
Min Temperature 37 °F 35 °F 21 °F (2000)
Degree Days  
Heating Degree Days 11 15  
Month to date heating degree days 194 269  
Since 1 July heating degree days 329 465  
Cooling Degree Days 0 0  
Month to date cooling degree days 9 0  
Year to date cooling degree days 69 39  
Growing Degree Days 4 (Base 50)    
Moisture  
Dew Point 25 °F    
Average Humidity 40    
Maximum Humidity 64    
Minimum Humidity 15    
Precipitation  
Precipitation 0.00 in 0.05 in 0.30 in (1984)
Month to date precipitation 2.56 1.53  
Year to date precipitation 12.52 12.99  
Sea Level Pressure  
Sea Level Pressure 29.57 in    
Wind  
Wind Speed 10 mph (South)    
Max Wind Speed 32 mph    
Max Gust Speed 44 mph    
Visibility 10 miles    
Events      
T = Trace of Precipitation, MM = Missing Value Source: NWS Daily Summary

Daily Weather History Graph

Daily Weather History Graph

Search for Another Location

Airport or City:

Astronomy

Sep. 25, 2013 Rise Set
Actual Time 6:58 AM MDT 6:59 PM MDT
Civil Twilight 6:31 AM MDT 7:25 PM MDT
Nautical Twilight 6:00 AM MDT 7:56 PM MDT
Astronomical Twilight 5:28 AM MDT 8:28 PM MDT
Moon 11:10 PM MDT (9/25) 1:04 PM MDT (9/25)
Length of Visible Light 12h 54m
Length of Day
12h 00m
Waning Gibbous, 63% of the Moon is Illuminated
Sep 25
Waning Gibbous
Sep 26
Last Quarter
Oct 4
New
Oct 11
First Quarter
Oct 18
Full

Hourly Weather History & Observations

Time (MDT) Temp. Windchill Dew Point Humidity Pressure Visibility Wind Dir Wind Speed Gust Speed Precip Events Conditions
12:53 AM 41.0 °F - 28.9 °F 62% 29.81 in 10.0 mi Calm Calm - N/A   Clear
1:53 AM 39.9 °F 37.8 °F 28.9 °F 65% 29.80 in 10.0 mi East 3.5 mph - N/A   Clear
2:53 AM 44.1 °F 41.5 °F 28.9 °F 55% 29.74 in 10.0 mi SSE 4.6 mph - N/A   Clear
3:53 AM 44.1 °F 42.5 °F 28.0 °F 53% 29.72 in 10.0 mi Variable 3.5 mph - N/A   Clear
4:53 AM 44.1 °F 39.5 °F 28.0 °F 53% 29.70 in 10.0 mi South 8.1 mph - N/A   Clear
5:53 AM 39.9 °F 34.5 °F 28.0 °F 63% 29.72 in 10.0 mi South 8.1 mph - N/A   Clear
6:53 AM 44.1 °F 38.6 °F 27.0 °F 51% 29.74 in 10.0 mi South 10.4 mph - N/A   Clear
7:53 AM 46.0 °F 41.4 °F 26.1 °F 46% 29.73 in 10.0 mi SSE 9.2 mph - N/A   Clear
8:53 AM 54.0 °F - 28.9 °F 38% 29.69 in 10.0 mi SSE 8.1 mph - N/A   Clear
9:53 AM 61.0 °F - 21.9 °F 22% 29.65 in 10.0 mi SE 12.7 mph - N/A   Clear
10:53 AM 64.0 °F - 18.0 °F 17% 29.60 in 10.0 mi SE 13.8 mph 27.6 mph N/A   Clear
11:53 AM 66.0 °F - 18.0 °F 16% 29.56 in 10.0 mi SSE 21.9 mph 29.9 mph N/A   Clear
12:53 PM 66.9 °F - 19.9 °F 17% 29.52 in 10.0 mi South 20.7 mph 31.1 mph N/A   Clear
1:53 PM 70.0 °F - 19.0 °F 14% 29.46 in 10.0 mi South 23.0 mph 35.7 mph N/A   Clear
2:53 PM 70.0 °F - 21.0 °F 16% 29.42 in 10.0 mi South 17.3 mph 29.9 mph N/A   Clear
3:53 PM 69.1 °F - 19.0 °F 15% 29.41 in 10.0 mi South 17.3 mph 28.8 mph N/A   Clear
4:53 PM 70.0 °F - 19.0 °F 14% 29.39 in 10.0 mi South 12.7 mph 32.2 mph N/A   Clear
5:53 PM 66.9 °F - 21.9 °F 18% 29.43 in 10.0 mi South 11.5 mph 24.2 mph N/A   Clear
6:53 PM 61.0 °F - 24.1 °F 24% 29.44 in 10.0 mi West 8.1 mph - N/A   Partly Cloudy
7:53 PM 55.0 °F - 27.0 °F 34% 29.46 in 10.0 mi SE 8.1 mph - N/A   Clear
8:53 PM 57.0 °F - 27.0 °F 32% 29.44 in 10.0 mi SSW 9.2 mph 32.2 mph N/A   Clear
9:53 PM 52.0 °F - 30.0 °F 43% 29.45 in 10.0 mi East 3.5 mph - N/A   Partly Cloudy
10:53 PM 51.1 °F - 30.9 °F 46% 29.46 in 10.0 mi Calm Calm - N/A   Clear
11:53 PM 51.1 °F - 30.0 °F 44% 29.46 in 10.0 mi Calm Calm - N/A   Clear